Regional Weather Roundup
Issued by NWS

Home | Current Version | Previous Version | Graphics & Text | Print | Product List | Glossary On
Versions: 1 2 3 4 5 6 7 8 9 10 11 12 13 14 15 16 17 18 19 20 21 22 23 24 25 26 27 28 29 30 31 32 33 34 35 36 37 38 39 40 41 42 43 44 45 46 47 48 49 50
000
ASUS44 KMEG 291410
RWRTN
TENNESSEE HOURLY STATE WEATHER ROUNDUP
NATIONAL WEATHER SERVICE MEMPHIS TN
900 AM CDT WED JUL 29 2015

TNZ002-004-019-021-049-052-054-088>092-291500-
WEST TENNESSEE

CITY           SKY/WX    TMP DP  RH WIND       PRES   REMARKS
MEMPHIS INTL   CLOUDY    86  76  71 W5        30.05R HX  96
NWS MEMPHIS      N/A     84 N/A N/A MISG        N/A
JACKSON        MOSUNNY   87  77  72 W8        30.04S HX  99
DYERSBURG        N/A    N/A N/A N/A MISG        N/A
PARIS          SUNNY     81  73  78 SW5       30.05R
LEXINGTON      MOSUNNY   79  73  83 CALM      30.04S
$$

TNZ008-025-027-028-033-062-065-066-291500-
NORTH MIDDLE TENNESSEE

CITY           SKY/WX    TMP DP  RH WIND       PRES   REMARKS
NASHVILLE      MOSUNNY   80  75  84 VRB3      30.05R
CLARKSVILLE    LGT RAIN  78  75  90 W7        30.04F
SMYRNA         PTSUNNY   80  75  84 CALM      30.06R
CROSSVILLE     MOSUNNY   79  70  74 NE5       30.11R
$$

TNZ061-075-076-078-094-096-097-291500-
SOUTH MIDDLE TENNESSEE

CITY           SKY/WX    TMP DP  RH WIND       PRES   REMARKS
FAYETTEVILLE   MOSUNNY   79  73  83 CALM      30.06S
TULLAHOMA      MOSUNNY   79  73  83 CALM      30.08S
WINCHESTER     MOSUNNY   79  75  89 CALM      30.06S
MCMINNVILLE    CLOUDY    77  77 100 CALM      30.07S
SHELBYVILLE    MOSUNNY   82  75  78 CALM      30.07S
$$

TNZ017-018-042-046-047-291500-
NORTHEAST TENNESSEE

CITY           SKY/WX    TMP DP  RH WIND       PRES   REMARKS
TRI CITIES     PTSUNNY   78  71  79 SW6       30.08R
ELIZABETHTON   CLOUDY    79  70  73 CALM      30.08S
$$

TNZ012-013-036-069-073-074-291500-
CENTRAL EAST TENNESSEE

CITY           SKY/WX    TMP DP  RH WIND       PRES   REMARKS
KNOXVILLE      MOSUNNY   80  73  79 CALM      30.05S
OAK RIDGE      SUNNY     81  73  76 CALM      30.06S
GATLINBURG     SUNNY     81  72  74 NW3       30.05S
MORRISTOWN       N/A     81  73  78 CALM      30.07F
$$

TNZ083-085-099-291500-
SOUTHEAST TENNESSEE

CITY           SKY/WX    TMP DP  RH WIND       PRES   REMARKS
CHATTANOOGA    PTSUNNY   84  72  67 CALM      30.04S
$$

SKY/WX REPORTED AS FAIR MEANS FEW OR NO CLOUDS BELOW
12 THOUSAND FEET.



USA.gov is the U.S. government's official web portal to all federal, state and local government web resources and services.